When you browse on this site, cookies collect data to enhance your experience and personalize the content and advertising you see.
Visit our Privacy Policy to learn more. By continuing to use the site, you agree to this use of cookies and data.
  • en Suisse
  • Liste des pays
  • À 7 jours
  • Température de l'eau
  • Carte météo
  • Widgets météo
  • user-avatar
    Se connecter

    Météo par heure à Dzerzhinsk

    Ce jour, 23 Février, Dimanche

    Heure Température Précipitation Vent Pression Humidité
    00:00 +2°C° 0 mm 1 m/s 751 mmHg 98%
    01:00 +1°C° 0 mm 1 m/s 751 mmHg 98%
    02:00 +1°C° 0 mm 1 m/s 751 mmHg 98%
    03:00 -1°C° 0 mm 2 m/s 750 mmHg 97%
    04:00 -1°C° 0 mm 2 m/s 750 mmHg 97%
    05:00 -1°C° 0 mm 2 m/s 750 mmHg 97%
    06:00 -1°C° 0 mm 3 m/s 749 mmHg 97%
    07:00 -1°C° 0 mm 3 m/s 749 mmHg 95%
    08:00 -2°C° 0 mm 4 m/s 749 mmHg 93%
    09:00 -1°C° 0 mm 4 m/s 749 mmHg 91%
    10:00 -1°C° 0 mm 5 m/s 748 mmHg 88%
    11:00 -1°C° 0 mm 5 m/s 748 mmHg 85%
    12:00 -1°C° 0 mm 6 m/s 748 mmHg 83%
    13:00 -1°C° 0 mm 6 m/s 747 mmHg 81%
    14:00 0°C° 0 mm 7 m/s 746 mmHg 79%
    15:00 0°C° 0 mm 8 m/s 746 mmHg 75%
    16:00 0°C° 0.1 mm 8 m/s 745 mmHg 78%
    17:00 0°C° 0.1 mm 8 m/s 745 mmHg 82%
    18:00 0°C° 0.1 mm 8 m/s 744 mmHg 85%
    19:00 0°C° 0 mm 8 m/s 744 mmHg 85%
    20:00 0°C° 0 mm 8 m/s 743 mmHg 84%
    21:00 0°C° 0 mm 8 m/s 743 mmHg 84%
    22:00 0°C° 0.1 mm 8 m/s 742 mmHg 85%
    23:00 0°C° 0.1 mm 8 m/s 742 mmHg 86%

    Demain, 24 Février, Lundi

    Heure Température Précipitation Vent Pression Humidité
    00:00 0°C° 0.1 mm 8 m/s 742 mmHg 87%
    01:00 0°C° 0.2 mm 7 m/s 741 mmHg 89%
    02:00 +1°C° 0.2 mm 6 m/s 741 mmHg 92%
    03:00 +1°C° 0.2 mm 6 m/s 741 mmHg 94%
    04:00 +1°C° 0.4 mm 6 m/s 740 mmHg 95%
    05:00 +1°C° 0.4 mm 6 m/s 739 mmHg 95%
    06:00 0°C° 0.4 mm 7 m/s 738 mmHg 96%
    07:00 0°C° 0.6 mm 7 m/s 737 mmHg 96%
    08:00 0°C° 0.6 mm 7 m/s 736 mmHg 96%
    09:00 0°C° 0.6 mm 8 m/s 735 mmHg 96%
    10:00 0°C° 0.6 mm 8 m/s 734 mmHg 96%
    11:00 0°C° 0.6 mm 9 m/s 733 mmHg 96%
    12:00 0°C° 0.6 mm 10 m/s 731 mmHg 95%
    13:00 0°C° 1.2 mm 9 m/s 730 mmHg 96%
    14:00 0°C° 1.2 mm 9 m/s 729 mmHg 96%
    15:00 0°C° 1.2 mm 9 m/s 728 mmHg 96%
    16:00 0°C° 0.5 mm 8 m/s 727 mmHg 96%
    17:00 +2°C° 0.5 mm 6 m/s 726 mmHg 95%
    18:00 +2°C° 0.5 mm 5 m/s 725 mmHg 95%
    19:00 +3°C° 1.1 mm 4 m/s 725 mmHg 95%
    20:00 +1°C° 1.1 mm 4 m/s 725 mmHg 94%
    21:00 +1°C° 1.1 mm 4 m/s 725 mmHg 94%
    22:00 +1°C° 1.1 mm 4 m/s 725 mmHg 95%
    23:00 +1°C° 1.1 mm 5 m/s 726 mmHg 96%

    Après-demain, 25 Février, Mardi

    Heure Température Précipitation Vent Pression Humidité
    00:00 -1°C° 1.1 mm 6 m/s 726 mmHg 97%
    01:00 -1°C° 1.3 mm 8 m/s 728 mmHg 97%
    02:00 -3°C° 1.3 mm 10 m/s 729 mmHg 96%
    03:00 -3°C° 1.3 mm 12 m/s 731 mmHg 96%
    04:00 -3°C° 0.3 mm 12 m/s 732 mmHg 91%
    05:00 -3°C° 0.3 mm 11 m/s 734 mmHg 85%
    06:00 -3°C° 0.3 mm 11 m/s 736 mmHg 80%
    07:00 -3°C° 0 mm 10 m/s 737 mmHg 81%
    08:00 -3°C° 0 mm 9 m/s 739 mmHg 81%
    09:00 -4°C° 0 mm 9 m/s 740 mmHg 82%
    10:00 -2°C° 0 mm 8 m/s 741 mmHg 76%
    11:00 -1°C° 0 mm 8 m/s 742 mmHg 71%
    12:00 -1°C° 0 mm 7 m/s 742 mmHg 65%
    13:00 0°C° 0 mm 7 m/s 743 mmHg 62%
    14:00 +2°C° 0 mm 6 m/s 743 mmHg 59%
    15:00 +2°C° 0 mm 6 m/s 743 mmHg 56%
    16:00 +1°C° 0 mm 5 m/s 743 mmHg 60%
    17:00 +1°C° 0 mm 4 m/s 743 mmHg 64%
    18:00 +1°C° 0 mm 3 m/s 744 mmHg 68%
    19:00 +1°C° 0 mm 3 m/s 744 mmHg 70%
    20:00 +1°C° 0 mm 3 m/s 744 mmHg 71%
    21:00 0°C° 0 mm 3 m/s 744 mmHg 73%
    22:00 -1°C° 0 mm 4 m/s 744 mmHg 74%
    23:00 -1°C° 0 mm 4 m/s 743 mmHg 76%

    26 Février, Mercredi

    Heure Température Précipitation Vent Pression Humidité
    00:00 -1°C° 0 mm 5 m/s 743 mmHg 77%
    01:00 -1°C° 0 mm 5 m/s 743 mmHg 80%
    02:00 -1°C° 0 mm 5 m/s 743 mmHg 82%
    03:00 -1°C° 0 mm 5 m/s 743 mmHg 85%
    04:00 0°C° 0 mm 5 m/s 742 mmHg 85%
    05:00 -1°C° 0 mm 6 m/s 742 mmHg 85%
    06:00 -1°C° 0 mm 6 m/s 741 mmHg 86%
    07:00 -1°C° 0 mm 6 m/s 741 mmHg 83%
    08:00 0°C° 0 mm 7 m/s 741 mmHg 80%
    09:00 0°C° 0 mm 8 m/s 741 mmHg 77%
    10:00 +2°C° 0 mm 8 m/s 740 mmHg 72%
    11:00 +4°C° 0 mm 8 m/s 740 mmHg 68%
    12:00 +5°C° 0 mm 9 m/s 740 mmHg 63%
    13:00 +5°C° 0 mm 9 m/s 740 mmHg 62%
    14:00 +6°C° 0 mm 9 m/s 739 mmHg 61%
    15:00 +6°C° 0 mm 9 m/s 739 mmHg 60%
    16:00 +6°C° 0 mm 8 m/s 738 mmHg 62%
    17:00 +5°C° 0 mm 8 m/s 738 mmHg 64%
    18:00 +4°C° 0 mm 7 m/s 738 mmHg 67%
    19:00 +4°C° 0 mm 7 m/s 738 mmHg 70%
    20:00 +3°C° 0 mm 7 m/s 738 mmHg 74%
    21:00 +3°C° 0 mm 7 m/s 738 mmHg 77%
    22:00 +2°C° 0 mm 7 m/s 738 mmHg 79%
    23:00 +2°C° 0 mm 6 m/s 738 mmHg 81%

    27 Février, Jeudi

    Heure Température Précipitation Vent Pression Humidité
    00:00 +2°C° 0 mm 6 m/s 738 mmHg 82%
    01:00 +2°C° 0 mm 6 m/s 738 mmHg 84%
    02:00 +2°C° 0 mm 5 m/s 738 mmHg 86%
    03:00 +2°C° 0 mm 5 m/s 738 mmHg 88%
    04:00 +2°C° 0 mm 5 m/s 738 mmHg 88%
    05:00 +2°C° 0 mm 5 m/s 738 mmHg 89%
    06:00 +2°C° 0 mm 5 m/s 737 mmHg 90%
    07:00 +2°C° 0 mm 5 m/s 737 mmHg 88%
    08:00 +3°C° 0 mm 5 m/s 738 mmHg 86%
    09:00 +3°C° 0 mm 5 m/s 738 mmHg 84%
    10:00 +5°C° 0 mm 6 m/s 737 mmHg 78%
    11:00 +7°C° 0 mm 6 m/s 737 mmHg 72%
    12:00 +8°C° 0 mm 6 m/s 737 mmHg 66%
    13:00 +9°C° 0 mm 7 m/s 737 mmHg 64%
    14:00 +10°C° 0 mm 7 m/s 737 mmHg 61%
    15:00 +11°C° 0 mm 8 m/s 736 mmHg 58%
    16:00 +10°C° 0 mm 7 m/s 736 mmHg 62%
    17:00 +9°C° 0 mm 7 m/s 736 mmHg 65%
    18:00 +8°C° 0 mm 6 m/s 736 mmHg 69%
    19:00 +8°C° 0 mm 7 m/s 736 mmHg 72%
    20:00 +6°C° 0 mm 7 m/s 736 mmHg 75%
    21:00 +6°C° 0 mm 7 m/s 736 mmHg 78%
    22:00 +6°C° 0 mm 7 m/s 736 mmHg 79%
    23:00 +7°C° 0 mm 6 m/s 735 mmHg 80%

    28 Février, Vendredi

    Heure Température Précipitation Vent Pression Humidité
    00:00 +7°C° 0 mm 6 m/s 735 mmHg 81%
    01:00 +7°C° 0 mm 6 m/s 735 mmHg 80%
    02:00 +7°C° 0 mm 6 m/s 735 mmHg 79%
    03:00 +5°C° 0 mm 6 m/s 735 mmHg 78%
    04:00 +6°C° 0 mm 5 m/s 735 mmHg 79%
    05:00 +6°C° 0 mm 5 m/s 734 mmHg 80%
    06:00 +6°C° 0 mm 5 m/s 734 mmHg 81%
    07:00 +5°C° 0.2 mm 6 m/s 734 mmHg 81%
    08:00 +5°C° 0.2 mm 7 m/s 733 mmHg 81%
    09:00 +5°C° 0.2 mm 7 m/s 733 mmHg 82%
    10:00 +5°C° 0.2 mm 7 m/s 733 mmHg 81%
    11:00 +6°C° 0.2 mm 7 m/s 733 mmHg 80%
    12:00 +6°C° 0.2 mm 7 m/s 733 mmHg 79%
    13:00 +6°C° 0 mm 8 m/s 733 mmHg 73%
    14:00 +6°C° 0 mm 9 m/s 733 mmHg 68%
    15:00 +6°C° 0 mm 9 m/s 733 mmHg 62%
    16:00 +5°C° 0 mm 8 m/s 734 mmHg 68%
    17:00 +4°C° 0 mm 7 m/s 735 mmHg 74%
    18:00 +4°C° 0 mm 6 m/s 735 mmHg 81%
    19:00 +3°C° 0 mm 6 m/s 736 mmHg 80%
    20:00 +2°C° 0 mm 7 m/s 737 mmHg 79%
    21:00 0°C° 0 mm 7 m/s 738 mmHg 78%
    22:00 -1°C° 0 mm 7 m/s 739 mmHg 75%
    23:00 -2°C° 0 mm 6 m/s 740 mmHg 72%
    Voir plus